Hourly Data Report for June 13, 2017

QUALICUM BEACH AIRPORT
BRITISH COLUMBIA

49°20'14.000" N
124°23'38.000" W
58.20 m
1026562
71766
VOQ

Download Data

Hourly Data (June 2017)
Hourly Data Report for June 13, 2017
TIME
LST
Temp Definition
°C
Dew Point Definition
°C
Rel Hum Definition
%
Precip. Amount Definition
mm

Wind Dir Definition
10's deg

Wind Spd Definition
km/h
Visibility Definition
km
Stn Press Definition
kPa
Hmdx Definition


Wind Chill Definition


Weather Definition


00:00 14.8 7.2 61 0.0 27 7   100.88     LegendNANA
01:00 14.3 7.1 62 0.0 28 6   100.91     LegendNANA
02:00 14.1 6.9 62 0.0 28 6   100.92     LegendNANA
03:00 14.0 6.9 62 0.0 28 6   100.96     LegendNANA
04:00 13.2 7.5 68 0.0   0   101.00     LegendNANA
05:00 13.1 7.6 69 0.0 28 2   101.02     LegendNANA
06:00 13.3 7.5 68 0.0 25 3   101.04     LegendNANA
07:00 13.5 7.3 66 0.0 29 5   101.07     LegendNANA
08:00 13.4 7.4 67 0.0 18 3   101.08     LegendNANA
09:00 13.9 7.7 66 0.0 25 2   101.10     LegendNANA
10:00 12.8 10.3 85 0.0 11 12   101.11     LegendNANA
11:00 13.6 10.4 81 0.0 12 8   101.13     LegendNANA
12:00 14.6 10.0 74 0.0 9 9   101.10     LegendNANA
13:00 14.6 9.8 73 0.0 11 10   101.09     LegendNANA
14:00 14.6 9.7 72 0.0 10 15   101.09     LegendNANA
15:00 14.4 9.3 72 0.0 11 12   101.08     LegendNANA
16:00 14.4 9.9 74 0.0 11 9   101.05     LegendNANA
17:00 14.9 9.3 69 0.0 10 7   101.00     LegendNANA
18:00 15.1 8.8 66 0.0 9 5   100.99     LegendNANA
19:00 15.2 7.8 61 0.0 15 5   100.99     LegendNANA
20:00 14.5 5.5 55 0.0 23 4   101.00     LegendNANA
21:00 12.8 5.2 60 0.0 21 4   100.99     LegendNANA
22:00 10.0 6.2 77 0.0   0   100.98     LegendNANA
23:00 10.5 6.4 76 0.0 23 2   100.97     LegendNANA

Notes on Data Quality.

Legend

  • E = Estimated
  • M = Missing
  • NA = Not Available*
  • [empty] = Indicates an unobserved value
Date modified: